Regional Weather Roundup
Issued by NWS Grand Forks, ND

Home | Current Version | Previous Version | Graphics & Text | Print | Product List | Glossary On
Versions: 1 2 3 4 5 6 7 8 9 10 11 12 13 14 15 16 17 18 19 20 21 22 23 24 25 26 27 28 29 30 31 32 33 34 35 36 37 38 39 40 41 42 43 44 45 46 47 48 49 50
000
ASUS43 KFGF 100731
RWRFGF
PRAIRIE TO PINES  WEATHER ROUNDUP
NATIONAL WEATHER SERVICE EASTERN NORTH DAKOTA/GRAND FORKS ND
100 AM CST SAT DEC 10 2016

 **SATELLITE DATA USED TO AUGMENT SKY COVER AT AUTOMATED STATIONS**
 *****  WEATHER ACROSS EASTERN NORTH DAKOTA  *****

CITY           SKY/WX    TMP DP  RH WIND       PRES   REMARKS
GRAND FORKS    CLOUDY    -3  -8  79 NW8       30.55F WCI -18
GRAND FRKS AFB CLOUDY    -4 -10  73 N8        30.54F WCI -19
DEVILS LAKE    CLOUDY   -15 -19  82 NW5       30.50S WCI -27
FARGO          MOCLDY    -7 -14  71 NW7       30.56F WCI -21
WAHPETON ARPT  SUNNY     -8 -15  71 NW7       30.55F WCI -22
$$

 ***** WEATHER ACROSS CENTRAL AND WESTERN NORTH DAKOTA  *****

CITY           SKY/WX    TMP DP  RH WIND       PRES   REMARKS
BISMARCK       CLOUDY   -15 -19  82 NE3       30.48F
MINOT          CLOUDY   -16 -21  78 CALM      30.44F
JAMESTOWN      CLOUDY   -14 -18  82 NW7       30.49F WCI -30
MINOT AFB      CLOUDY   -22 -28  73 CALM      30.44F
GARRISON         N/A    -19 -24  77 CALM      30.43F
WILLISTON      CLOUDY   -15 -20  78 CALM      30.41F
DICKINSON      CLOUDY   -14 -18  82 SE6       30.30F WCI -28
HETTINGER      CLOUDY    -7 -11  83 SE6       30.32F WCI -20
$$

 *****  OTHER AIRPORT OBSERVATIONS IN OUR AREA  *****

CITY           SKY/WX    TMP DP  RH WIND       PRES   REMARKS
WALHALLA         N/A    -11 -11 100 W5        30.55S WCI -23
GRAFTON AIRPOR CLOUDY    -6 -11  77 NW7       30.58S WCI -20
VALLEY CITY AR PTSUNNY  -13 -18  77 NW9       30.52S WCI -31
CANDO          FAIR     -17 -20  83 CALM      30.51F
CAVALIER APRT    N/A     -9 -15  77 W3        30.56S
GWINNER        FAIR      -8 -13  77 NW7       30.53S WCI -22
SHEYENNE NWR     N/A    -12 -20  67 W2        29.95S
ROLLA          FAIR     -20 -26  76 W6        30.43F WCI -36
 ***** THE ABOVE OBSERVATIONS ARE NON NWS ARE NOT QUALITY
       CONTROLLED AND MAY MIS-REPORT RAIN FOR SNOW...
$$

  *****  WEATHER ACROSS NORTHERN MINNESOTA  *****

CITY           SKY/WX    TMP DP  RH WIND       PRES   REMARKS
FLAG ISLAND    CLEAR     -4  -8  84 NW13      30.45S WCI -23
WARROAD        CLEAR     -9 -15  77 W5        30.47S WCI -21
ROSEAU         CLOUDY    -8 -11  84 W7        30.49S WCI -22
HALLOCK        CLOUDY    -6 -11  77 NW9       30.55R WCI -22
THF RVR FALLS  FLURRIES  -6 -10  83 W6        30.51F WCI -19
BAUDETTE       CLEAR     -6 -11  79 W8        30.44F WCI -21
WASKISH        CLOUDY     0  -6  78 W7        30.45F WCI -13
CROOKSTON      LGT SNOW  -4  -8  84 CALM      30.54F
STEPHEN NDAWN    N/A     -2  -8  78 NW7         N/A  WCI -16
GREENBUSH NDAW   N/A    -13 -17  84 W3          N/A
$$
  *****  WEATHER ACROSS CENTRAL AND WEST MINNESOTA  *****

CITY           SKY/WX    TMP DP  RH WIND       PRES   REMARKS
FOSSTON        CLOUDY   -15 -18  84 CALM      30.49S
BEMIDJI        CLOUDY    -3  -8  81 W3        30.45S
PARK RAPIDS    CLOUDY     0  -9  65 NW8       30.44F WCI -14
ELBOW LAKE     FAIR      -7 -10  84 W9        30.51F WCI -24
WADENA         LGT SNOW  -2  -8  78 CALM      30.47S
DETROIT LAKES  CLOUDY    -4  -8  84 NW6       30.48F WCI -16
MOORHEAD       CLEAR     -8 -15  71 CALM      30.55F
FERGUS FALLS   MOCLDY    -9 -15  77 NW8       30.57F WCI -26
MORRIS MN      CLEAR     -4  -8  84 NW7       30.51F WCI -18
STAPLES        NOT AVBL
$$
  *****  WEATHER ELSEWHERE ACROSS MINNESOTA  *****

CITY           SKY/WX    TMP DP  RH WIND       PRES   REMARKS
DULUTH         CLOUDY     5   0  79 NW7       30.39S WCI  -7
INTRNTL FALLS  CLEAR     -5  -9  83 W7        30.43S WCI -19
ELY            CLOUDY     1  -4  78 NW6       30.39R WCI -10
CLOQUET        FLURRIES   7   0  72 NW6       30.41S WCI  -3
WHEATON        CLEAR     -4  -8  84 NW6       30.57S WCI -16
BRAINERD       CLOUDY     4  -4  69 NW6       30.46S WCI  -7
HIBBING        CLOUDY     1  -5  75 N9        30.41F WCI -14
ALEXANDRIA     PTCLDY    -4  -8  83 NW6       30.47F WCI -16
SAINT CLOUD    CLEAR      2  -2  83 W7        30.49S WCI -11
MINNEAPOLIS    PTCLDY     7   0  73 W8        30.51R WCI  -6
$$

  *****  WEATHER ACROSS SOUTH DAKOTA  *****

CITY           SKY/WX    TMP DP  RH WIND       PRES   REMARKS
SIOUX FALLS    CLOUDY    11   7  84 NE7       30.47F WCI   0
BROOKINGS      CLOUDY     4  -1  80 N5        30.47S WCI  -5
WATERTOWN      CLOUDY    -1  -5  82 N3        30.47R
HURON          CLOUDY     3   0  87 N8        30.49F WCI -10
SISSETON         N/A     -6 -12  75 N9        30.53F WCI -23
ABERDEEN       CLOUDY    -6 -14  68 N5        30.53F WCI -17
MITCHELL       CLOUDY     5   1  83 N6        30.50F WCI  -6
PIERRE         CLOUDY    -5 -10  79 NE5       30.46F WCI -16
MOBRIDGE       CLOUDY    -8 -15  71 N5        30.43F WCI -19
RAPID CITY     CLOUDY     3  -2  79 SE14      30.22F WCI -15
$$

  *****  SOME WEATHER IN NEARBY STATES *****

CITY           SKY/WX    TMP DP  RH WIND       PRES   REMARKS
GLASGOW MT     CLOUDY    -6 -10  83 E12       30.25F WCI -25
GREAT FALLS MT CLOUDY     0  -4  83 SE3       29.96F
CHEYENNE WY    CLOUDY    26  19  74 W7        30.03F WCI  18
SCOTTSBLUFF NE CLOUDY    14   6  70 E17G23    30.09F WCI  -3
OMAHA NE       CLOUDY    23  12  62 SE6       30.49F WCI  16
DES MOINES IA  CLOUDY    22  13  68 W5        30.52S WCI  16
DAVENPORT IA   CLOUDY    19  13  77 SW5       30.53F WCI  12
CHICAGO IL     CLOUDY    19  12  74 W10       30.50S WCI   7
EAU CLAIRE WI  CLOUDY    13   5  70 W7        30.45F WCI   3
LA CROSSE WI   CLOUDY    16  10  77 NW9       30.49F WCI   4
$$

  *****  SOME NATIONAL WEATHER *****

CITY           SKY/WX    TMP DP  RH WIND       PRES   REMARKS
LA GUARDIA NY  CLEAR     32  15  49 NW14      30.31R WCI  22
RALEIGH NC     CLEAR     25  14  63 CALM      30.51R
ATLANTA GA     CLEAR     30  18  60 NW9       30.46S WCI  22
NEW ORLEANS LA CLEAR     43  27  53 NE10      30.51R
OKLAHOMA CITY  CLOUDY    33  16  49 S9        30.42F
ALBUQUERQUE NM CLOUDY    32  25  75 CALM      30.30F
SALT LAKE CITY MOCLDY    33  30  88 CALM      30.04F
LOS ANGELES CA PTCLDY    58  56  93 E7        30.18F FOG
BOISE ID       CLOUDY    31  30  96 SE3       29.97F FOG
SEATTLE WA     LGT RAIN  35  33  92 SE15      29.82S
$$

*** WEATHER ACROSS MANITOBA...SASKATCHEWAN AND ONTARIO ***
                ***ONTARIO***

CITY           SKY/WX    TMP DP  RH WIND       PRES   REMARKS
GERALDTON      FLURRIES  -2  -6  84 W2        30.29S
THUNDER BAY    CLOUDY    10   0  61 NW12      30.39S WCI  -4
SIOUX LOOKOUT  FLURRIES   0  -6  78 NW6       30.36R WCI -12
TORONTO        MOCLDY    19  14  79 N2        30.32S
BIG TROUT LK   CLOUDY    -6  -9  84 NW13      30.37R WCI -25
PICKLE LAKE    NOT AVBL
DRYDEN         CLEAR     -4  -8  84 W7        30.37R WCI -18
KENORA         FLURRIES  -6  -9  84 N3        30.40F
$$
                *** MANITOBA***

CITY           SKY/WX    TMP DP  RH WIND       PRES   REMARKS
BRANDON        CLEAR    -18 -24  76 W6        30.48F WCI -33
DAUPHIN        CLEAR    -20 -24  83 SW8       30.51F WCI -39
ISLAND LAKE    NOT AVBL
PILOT MOUND      N/A    -18 -24  76 SW5         N/A  WCI -31
THE PAS        FLURRIES  -9 -15  77 W3        30.49F
THOMPSON       CLOUDY    -8 -13  77 SW5       30.45F WCI -19
WINNIPEG       MOCLDY    -9 -15  77 W9        30.53F WCI -27
LYNN LAKE      FLURRIES  -6  -8  92 SW5       30.37F WCI -17
CHURCHILL      CLEAR    -11 -17  77 W14G21    30.35F WCI -33
GILLAM         CLEAR    -11 -17  77 W9        30.42S WCI -29
$$
                ***SASKATCHEWAN***

CITY           SKY/WX    TMP DP  RH WIND       PRES   REMARKS
ESTEVAN        PTCLDY   -20 -24  83 S5        30.41F WCI -33
KINDERSLEY     PTCLDY   -13 -18  77 E9        30.24F WCI -31
LLOYDMINSTER   CLEAR    -17 -22  76 S6        30.27F WCI -31
PRINCE ALBERT  CRYSTALS -20 -27  69 CALM      30.42F VSB 3/4
REGINA         PTCLDY   -17 -22  76 SE7       30.38F WCI -33
YORKTON        CLEAR    -13 -17  84 SW5       30.42F WCI -25
N. BATTLEFORD  CLEAR    -18 -24  76 SE7       30.37F WCI -35
LA RONGE       PTCLDY   -18 -24  76 VRB2      30.42F
SASKATOON      CRYSTALS  -9 -15  77 S3        30.40F
SWIFT CURRENT  CLOUDY    -2  -6  84 SE12      30.18F WCI -20
$$
NOTE: THESE ARE AUTOMATED STATIONS WITH LIMITED QUALITY CONTROL
      "FAIR" INDICATES FEW OR NO CLOUDS BELOW 12,000 FEET WITH NO
      SIGNIFICANT WEATHER AND/OR OBSTRUCTIONS TO VISIBILITY.
      SKY/WX - SKY CONDITION AND SIGNIFICANT WEATHER.
      TMP - AIR TEMPERATURE.    DP   - DEWPOINT TEMPERATURE.
      RH  - RELATIVE HUMIDITY.  PRES - PRESSURE.
      HX  - HEAT INDEX.         WCI  - WIND CHILL INDEX.
$



USA.gov is the U.S. government's official web portal to all federal, state and local government web resources and services.